Orbital Elements at Epoch 2459200.5 (2020-Dec-17.0) TDB
Reference: JPL 30 (heliocentric ecliptic J2000)
Element | Value | Uncertainty (1-sigma) | Units |
e | .1741487194611405 | 3.6811e-08 | |
a | 2.790681474287962 | 9.955e-09 | au |
q | 2.304687869116785 | 1.0249e-07 | au |
i | 8.656093463313526 | 5.0037e-06 | deg |
node | 337.9822988919412 | 1.9053e-05 | deg |
peri | 38.96260639101534 | 2.3292e-05 | deg |
M | 78.40967197641923 | 1.1938e-05 | deg |
tp | 2458829.622089802866 (2019-Dec-12.12208980) | 5.6394e-05 | TDB |
period | 1702.800742631871 4.66 | 9.1114e-06 2.495e-08 | d yr |
n | .2114163982825021 | 1.1313e-09 | deg/d |
Q | 3.276675079459138 | 1.1689e-08 | au |
|
| | Orbit Determination Parameters
Additional Information
|